BHI2017 SAZB-SAZM

Flight info

Callsign BHI2017
Flight time 0h 46m
Altitude 23000
Route DOTRI1C DOTRI W32 SIRAN SIRAN1U
Aircraft A320/M-SDE3FGHIRWY/LB1

Departure

Time 2026-05-07 23:50
Airport Comandante Espora Airport (SAZB)

Arrival

Time 2026-05-08 00:37
Airport Ástor Piazzola International Airport (SAZM)
Time Latitude Longitude Altitude Speed Heading
2026-05-07 23:26 -38.71642 -62.16310 257 ft 0 kts 276°
2026-05-07 23:42 -38.71643 -62.16296 257 ft 4 kts 268°
2026-05-07 23:42 -38.71637 -62.16266 257 ft 4 kts 224°
2026-05-07 23:43 -38.71618 -62.16255 257 ft 3 kts 159°
2026-05-07 23:43 -38.71610 -62.16260 257 ft 0 kts 154°
2026-05-07 23:46 -38.71614 -62.16257 257 ft 2 kts 154°
2026-05-07 23:46 -38.71629 -62.16245 257 ft 4 kts 142°
2026-05-07 23:47 -38.71639 -62.16212 257 ft 5 kts 98°
2026-05-07 23:47 -38.71647 -62.16157 257 ft 7 kts 99°
2026-05-07 23:47 -38.71654 -62.16084 257 ft 9 kts 82°
2026-05-07 23:47 -38.71622 -62.16006 257 ft 11 kts 61°
2026-05-07 23:48 -38.71596 -62.15947 257 ft 12 kts 61°
2026-05-07 23:48 -38.71556 -62.15830 258 ft 10 kts 86°
2026-05-07 23:48 -38.71576 -62.15780 258 ft 10 kts 140°
2026-05-07 23:48 -38.71616 -62.15759 258 ft 0 kts 164°
2026-05-07 23:50 -38.71624 -62.15756 258 ft 10 kts 164°
2026-05-07 23:50 -38.72008 -62.15618 257 ft 107 kts 163°
2026-05-07 23:50 -38.72948 -62.15265 539 ft 160 kts 171°
2026-05-07 23:50 -38.74120 -62.14921 1346 ft 184 kts 172°
2026-05-07 23:51 -38.75283 -62.13989 2295 ft 220 kts 134°
2026-05-07 23:51 -38.75804 -62.12040 3157 ft 252 kts 97°
2026-05-07 23:51 -38.75342 -62.09766 3940 ft 279 kts 68°
2026-05-07 23:51 -38.74927 -62.08789 4314 ft 287 kts 63°
2026-05-07 23:52 -38.73832 -62.06669 5319 ft 292 kts 58°
2026-05-07 23:52 -38.72658 -62.04533 6330 ft 295 kts 58°
2026-05-07 23:52 -38.71519 -62.02330 7338 ft 298 kts 60°
2026-05-07 23:52 -38.70428 -62.00046 8396 ft 302 kts 61°
2026-05-07 23:53 -38.69345 -61.97714 9441 ft 307 kts 62°
2026-05-07 23:53 -38.68562 -61.95175 10271 ft 311 kts 83°
2026-05-07 23:53 -38.68267 -61.92456 11188 ft 312 kts 83°
2026-05-07 23:53 -38.67927 -61.89718 12211 ft 312 kts 83°
2026-05-07 23:54 -38.67563 -61.86957 13132 ft 315 kts 81°
2026-05-07 23:54 -38.67171 -61.84195 13960 ft 317 kts 80°
2026-05-07 23:54 -38.66754 -61.81413 14641 ft 320 kts 79°
2026-05-07 23:54 -38.66320 -61.78601 15359 ft 324 kts 79°
2026-05-07 23:55 -38.65878 -61.75764 16070 ft 327 kts 78°
2026-05-07 23:55 -38.65428 -61.72900 16780 ft 330 kts 78°
2026-05-07 23:55 -38.64975 -61.70012 17484 ft 333 kts 78°
2026-05-07 23:55 -38.64516 -61.67079 18185 ft 336 kts 78°
2026-05-07 23:56 -38.64058 -61.64137 18804 ft 339 kts 78°
2026-05-07 23:56 -38.63596 -61.61158 19420 ft 343 kts 77°
2026-05-07 23:56 -38.63127 -61.58158 20034 ft 346 kts 78°
2026-05-07 23:56 -38.62652 -61.55130 20652 ft 349 kts 77°
2026-05-07 23:57 -38.62177 -61.52120 21229 ft 352 kts 77°
2026-05-07 23:57 -38.61694 -61.49040 21799 ft 355 kts 77°
2026-05-07 23:57 -38.61203 -61.45917 22166 ft 365 kts 77°
2026-05-07 23:57 -38.60690 -61.42668 22344 ft 380 kts 77°
2026-05-07 23:58 -38.60156 -61.39297 22503 ft 395 kts 77°
2026-05-07 23:58 -38.59598 -61.35793 22668 ft 409 kts 77°
2026-05-07 23:58 -38.59020 -61.32156 22713 ft 425 kts 77°
2026-05-07 23:58 -38.58422 -61.28383 22710 ft 440 kts 77°
2026-05-07 23:59 -38.57807 -61.24496 22705 ft 452 kts 77°
2026-05-07 23:59 -38.57174 -61.20517 22703 ft 462 kts 77°
2026-05-07 23:59 -38.56523 -61.16453 22699 ft 471 kts 76°
2026-05-07 23:59 -38.55858 -61.12319 22697 ft 478 kts 77°
2026-05-08 00:00 -38.55183 -61.08131 22690 ft 484 kts 77°
2026-05-08 00:00 -38.54502 -61.03917 22689 ft 485 kts 77°
2026-05-08 00:00 -38.53820 -60.99700 22688 ft 485 kts 76°
2026-05-08 00:00 -38.53139 -60.95488 22675 ft 484 kts 76°
2026-05-08 00:01 -38.52470 -60.91365 22679 ft 460 kts 76°
2026-05-08 00:01 -38.51851 -60.87530 22676 ft 435 kts 76°
2026-05-08 00:01 -38.51256 -60.83841 22674 ft 413 kts 76°
2026-05-08 00:01 -38.50686 -60.80325 22671 ft 396 kts 76°
2026-05-08 00:02 -38.50135 -60.76957 22660 ft 380 kts 76°
2026-05-08 00:02 -38.49603 -60.73722 22664 ft 365 kts 75°
2026-05-08 00:02 -38.49090 -60.70624 22670 ft 350 kts 75°
2026-05-08 00:02 -38.48589 -60.67606 22671 ft 349 kts 74°
2026-05-08 00:03 -38.48082 -60.64575 22654 ft 349 kts 75°
2026-05-08 00:03 -38.47577 -60.61550 22658 ft 348 kts 75°
2026-05-08 00:03 -38.47073 -60.58527 22659 ft 348 kts 74°
2026-05-08 00:03 -38.46571 -60.55507 22657 ft 348 kts 75°
2026-05-08 00:04 -38.46072 -60.52492 22656 ft 347 kts 75°
2026-05-08 00:04 -38.45573 -60.49482 22648 ft 347 kts 74°
2026-05-08 00:04 -38.45073 -60.46474 22651 ft 346 kts 74°
2026-05-08 00:04 -38.44574 -60.43471 22646 ft 346 kts 74°
2026-05-08 00:05 -38.44074 -60.40477 22632 ft 345 kts 74°
2026-05-08 00:05 -38.43574 -60.37483 22630 ft 345 kts 74°
2026-05-08 00:05 -38.43072 -60.34493 22626 ft 344 kts 74°
2026-05-08 00:05 -38.42571 -60.31508 22640 ft 344 kts 74°
2026-05-08 00:06 -38.42076 -60.28567 22637 ft 344 kts 73°
2026-05-08 00:06 -38.41565 -60.25549 22635 ft 343 kts 74°
2026-05-08 00:06 -38.41060 -60.22579 22630 ft 343 kts 74°
2026-05-08 00:06 -38.40563 -60.19644 22617 ft 343 kts 73°
2026-05-08 00:07 -38.40060 -60.16677 22613 ft 342 kts 73°
2026-05-08 00:07 -38.39554 -60.13714 22619 ft 342 kts 74°
2026-05-08 00:07 -38.39050 -60.10754 22619 ft 342 kts 73°
2026-05-08 00:07 -38.38547 -60.07799 22614 ft 341 kts 73°
2026-05-08 00:08 -38.38044 -60.04849 22608 ft 340 kts 73°
2026-05-08 00:08 -38.37540 -60.01899 22609 ft 340 kts 73°
2026-05-08 00:08 -38.37039 -59.98957 22620 ft 340 kts 73°
2026-05-08 00:08 -38.36538 -59.96014 22606 ft 340 kts 73°
2026-05-08 00:09 -38.36035 -59.93070 22608 ft 340 kts 73°
2026-05-08 00:09 -38.35531 -59.90143 22603 ft 339 kts 73°
2026-05-08 00:09 -38.35022 -59.87206 22605 ft 339 kts 73°
2026-05-08 00:09 -38.34511 -59.84269 22596 ft 339 kts 73°
2026-05-08 00:10 -38.34000 -59.81342 22602 ft 339 kts 73°
2026-05-08 00:10 -38.33491 -59.78419 22596 ft 338 kts 73°
2026-05-08 00:10 -38.32983 -59.75495 22596 ft 338 kts 73°
2026-05-08 00:10 -38.32479 -59.72569 22599 ft 338 kts 73°
2026-05-08 00:11 -38.31976 -59.69651 22592 ft 338 kts 73°
2026-05-08 00:11 -38.31471 -59.66733 22590 ft 337 kts 73°
2026-05-08 00:11 -38.30963 -59.63826 22593 ft 337 kts 73°
2026-05-08 00:11 -38.30452 -59.60904 22590 ft 338 kts 73°
2026-05-08 00:12 -38.29945 -59.58020 22583 ft 338 kts 73°
2026-05-08 00:12 -38.29433 -59.55101 22581 ft 338 kts 73°
2026-05-08 00:12 -38.28920 -59.52178 22581 ft 339 kts 73°
2026-05-08 00:12 -38.28405 -59.49257 22579 ft 339 kts 73°
2026-05-08 00:13 -38.27886 -59.46326 22579 ft 339 kts 73°
2026-05-08 00:13 -38.27369 -59.43396 22573 ft 340 kts 73°
2026-05-08 00:13 -38.26846 -59.40462 22573 ft 340 kts 73°
2026-05-08 00:13 -38.26308 -59.37536 22569 ft 340 kts 73°
2026-05-08 00:14 -38.25769 -59.34610 22571 ft 340 kts 73°
2026-05-08 00:14 -38.25225 -59.31681 22569 ft 340 kts 73°
2026-05-08 00:14 -38.24674 -59.28748 22567 ft 341 kts 73°
2026-05-08 00:14 -38.24126 -59.25844 22567 ft 342 kts 72°
2026-05-08 00:15 -38.23568 -59.22899 22566 ft 343 kts 73°
2026-05-08 00:15 -38.23006 -59.19953 22561 ft 343 kts 73°
2026-05-08 00:15 -38.22440 -59.17003 22560 ft 344 kts 72°
2026-05-08 00:15 -38.21869 -59.14045 22559 ft 345 kts 72°
2026-05-08 00:16 -38.21292 -59.11075 22551 ft 346 kts 72°
2026-05-08 00:16 -38.20710 -59.08103 22551 ft 347 kts 73°
2026-05-08 00:16 -38.20131 -59.05123 22544 ft 348 kts 75°
2026-05-08 00:16 -38.19801 -59.02058 22451 ft 352 kts 81°
2026-05-08 00:17 -38.19570 -58.98950 21907 ft 353 kts 81°
2026-05-08 00:17 -38.19351 -58.95852 21521 ft 349 kts 81°
2026-05-08 00:17 -38.19136 -58.92793 21153 ft 346 kts 82°
2026-05-08 00:17 -38.18926 -58.89758 20792 ft 343 kts 81°
2026-05-08 00:18 -38.18719 -58.86757 20426 ft 340 kts 81°
2026-05-08 00:18 -38.18512 -58.83772 20072 ft 337 kts 81°
2026-05-08 00:18 -38.18307 -58.80821 19725 ft 334 kts 81°
2026-05-08 00:18 -38.18102 -58.77882 19375 ft 332 kts 81°
2026-05-08 00:19 -38.17899 -58.74969 19029 ft 330 kts 81°
2026-05-08 00:19 -38.17696 -58.72075 18691 ft 328 kts 81°
2026-05-08 00:19 -38.17496 -58.69240 18358 ft 325 kts 81°
2026-05-08 00:19 -38.17292 -58.66383 18030 ft 323 kts 81°
2026-05-08 00:20 -38.17082 -58.63508 17676 ft 322 kts 81°
2026-05-08 00:20 -38.16875 -58.60726 17303 ft 320 kts 81°
2026-05-08 00:20 -38.16664 -58.57923 16927 ft 318 kts 81°
2026-05-08 00:20 -38.16450 -58.55130 16557 ft 316 kts 81°
2026-05-08 00:21 -38.16233 -58.52352 16195 ft 315 kts 81°
2026-05-08 00:21 -38.16013 -58.49591 15832 ft 314 kts 81°
2026-05-08 00:21 -38.15788 -58.46840 15479 ft 313 kts 81°
2026-05-08 00:21 -38.15559 -58.44097 15122 ft 311 kts 81°
2026-05-08 00:22 -38.15325 -58.41365 14773 ft 310 kts 81°
2026-05-08 00:22 -38.15087 -58.38647 14433 ft 309 kts 81°
2026-05-08 00:22 -38.14842 -58.35932 14088 ft 308 kts 81°
2026-05-08 00:22 -38.14591 -58.33236 13751 ft 307 kts 81°
2026-05-08 00:23 -38.14332 -58.30546 13423 ft 306 kts 81°
2026-05-08 00:23 -38.14062 -58.27860 13058 ft 305 kts 81°
2026-05-08 00:23 -38.13791 -58.25192 12682 ft 305 kts 81°
2026-05-08 00:23 -38.13517 -58.22528 12333 ft 303 kts 81°
2026-05-08 00:24 -38.13243 -58.19879 11993 ft 301 kts 81°
2026-05-08 00:24 -38.12973 -58.17286 11666 ft 300 kts 81°
2026-05-08 00:24 -38.12699 -58.14672 11333 ft 298 kts 81°
2026-05-08 00:24 -38.12421 -58.12066 11009 ft 296 kts 81°
2026-05-08 00:25 -38.12146 -58.09484 10685 ft 295 kts 81°
2026-05-08 00:25 -38.11869 -58.06912 10362 ft 293 kts 81°
2026-05-08 00:25 -38.11590 -58.04349 10048 ft 292 kts 81°
2026-05-08 00:25 -38.11307 -58.01808 9726 ft 290 kts 81°
2026-05-08 00:26 -38.11022 -57.99279 9417 ft 289 kts 81°
2026-05-08 00:26 -38.10732 -57.96759 9080 ft 287 kts 81°
2026-05-08 00:26 -38.10441 -57.94261 8737 ft 286 kts 81°
2026-05-08 00:26 -38.10145 -57.91765 8396 ft 285 kts 81°
2026-05-08 00:27 -38.09846 -57.89283 8061 ft 284 kts 81°
2026-05-08 00:27 -38.09542 -57.86810 7729 ft 283 kts 81°
2026-05-08 00:27 -38.09235 -57.84348 7398 ft 282 kts 81°
2026-05-08 00:27 -38.08926 -57.81895 7079 ft 281 kts 81°
2026-05-08 00:28 -38.08613 -57.79448 6756 ft 281 kts 81°
2026-05-08 00:28 -38.08296 -57.77011 6434 ft 279 kts 81°
2026-05-08 00:28 -38.07973 -57.74589 6129 ft 278 kts 81°
2026-05-08 00:28 -38.07646 -57.72175 5804 ft 277 kts 81°
2026-05-08 00:29 -38.07314 -57.69763 5499 ft 277 kts 80°
2026-05-08 00:29 -38.06977 -57.67362 5248 ft 277 kts 81°
2026-05-08 00:29 -38.06633 -57.64969 4995 ft 273 kts 80°
2026-05-08 00:29 -38.06300 -57.62622 4747 ft 275 kts 83°
2026-05-08 00:30 -38.06070 -57.60221 4498 ft 274 kts 85°
2026-05-08 00:30 -38.05863 -57.57822 4247 ft 273 kts 85°
2026-05-08 00:30 -38.05650 -57.55423 3987 ft 273 kts 85°
2026-05-08 00:30 -38.05434 -57.53030 3731 ft 273 kts 85°
2026-05-08 00:31 -38.05219 -57.50644 3474 ft 269 kts 85°
2026-05-08 00:31 -38.05002 -57.48348 3225 ft 254 kts 85°
2026-05-08 00:31 -38.04785 -57.46202 3045 ft 236 kts 85°
2026-05-08 00:31 -38.04583 -57.44233 3003 ft 213 kts 85°
2026-05-08 00:32 -38.04390 -57.42398 3018 ft 209 kts 85°
2026-05-08 00:32 -38.04004 -57.40653 2997 ft 200 kts 57°
2026-05-08 00:32 -38.03086 -57.39571 2998 ft 166 kts 27°
2026-05-08 00:32 -38.01999 -57.39314 3021 ft 157 kts 339°
2026-05-08 00:33 -38.01150 -57.40024 2994 ft 144 kts 303°
2026-05-08 00:33 -38.00547 -57.41017 2942 ft 141 kts 297°
2026-05-08 00:33 -38.00008 -57.42042 2641 ft 138 kts 292°
2026-05-08 00:33 -37.99565 -57.43109 2354 ft 136 kts 287°
2026-05-08 00:34 -37.99190 -57.44199 2069 ft 135 kts 285°
2026-05-08 00:34 -37.98820 -57.45287 1799 ft 134 kts 285°
2026-05-08 00:34 -37.98459 -57.46372 1711 ft 133 kts 285°
2026-05-08 00:34 -37.98072 -57.47446 1694 ft 136 kts 289°
2026-05-08 00:35 -37.97633 -57.48514 1565 ft 137 kts 290°
2026-05-08 00:35 -37.97187 -57.49585 1353 ft 137 kts 290°
2026-05-08 00:35 -37.96676 -57.50611 1145 ft 140 kts 300°
2026-05-08 00:35 -37.96074 -57.51577 930 ft 139 kts 302°
2026-05-08 00:36 -37.95528 -57.52572 893 ft 136 kts 292°
2026-05-08 00:36 -37.95167 -57.53672 781 ft 139 kts 288°
2026-05-08 00:36 -37.94717 -57.54752 486 ft 139 kts 298°
2026-05-08 00:36 -37.94198 -57.55795 219 ft 141 kts 301°
2026-05-08 00:37 -37.93667 -57.56828 60 ft 136 kts 302°
2026-05-08 00:37 -37.93225 -57.57717 45 ft 87 kts 304°
2026-05-08 00:37 -37.93052 -57.58051 46 ft 15 kts 314°
2026-05-08 00:38 -37.93027 -57.58114 45 ft 1 kts 130°
2026-05-08 00:38 -37.93039 -57.58082 46 ft 10 kts 120°
2026-05-08 00:38 -37.93091 -57.57975 46 ft 15 kts 125°
2026-05-08 00:38 -37.93148 -57.57970 46 ft 6 kts 225°
2026-05-08 00:39 -37.93185 -57.58002 47 ft 7 kts 213°
2026-05-08 00:39 -37.93230 -57.58039 48 ft 8 kts 206°
2026-05-08 00:39 -37.93286 -57.58027 48 ft 9 kts 165°
2026-05-08 00:39 -37.93349 -57.58025 46 ft 10 kts 188°
2026-05-08 00:40 -37.93408 -57.58051 48 ft 3 kts 205°
2026-05-08 00:40 -37.93412 -57.58053 48 ft 1 kts 205°
2026-05-08 00:40 -37.93424 -57.58062 48 ft 3 kts 216°
2026-05-08 00:40 -37.93427 -57.58071 48 ft 0 kts 252°
2026-05-08 00:41 -37.93427 -57.58072 48 ft 0 kts 256°
2026-05-08 00:41 -37.93427 -57.58078 45 ft 0 kts 269°
2026-05-08 00:41 -37.93426 -57.58079 44 ft 0 kts 286°
2026-05-08 00:41 -37.93423 -57.58080 45 ft 0 kts 317°
2026-05-08 00:42 -37.93418 -57.58080 45 ft 3 kts 346°
2026-05-08 00:42 -37.93392 -57.58084 48 ft 2 kts 354°